User: anonymous   Login
Location: Brede
(50.9167°N, 0.6000°E)
Time: 01:49:59
(UTC+00:00)
Language:

Cosmos 1908 - Orbit

View from above orbital plane
View from above orbital plane
View from above satellite
View from above satellite

Ground track
Ground track

The orbit data is extracted from the following two-line orbital elements,

1 18748U 88001A   20302.70833222  .00001331  00000-0  69492-4 0  9991
2 18748  82.4692 286.0641 0012389 325.1991  34.8429 15.15028635791857
Epoch (UTC): 28 October 2020 16:59:59
Eccentricity: 0.0012389
inclination: 82.4692°
perigee height: 512 km
apogee height: 529 km
right ascension of ascending node: 286.0641°
argument of perigee: 325.1991°
revolutions per day: 15.15028635
mean anomaly at epoch: 34.8429°
orbit number at epoch: 79185

The dashed part of the orbit path shows where the satellite is in the earth's shadow,  

DLR